Weather History for Jackson, WY

Change the Weather History Date:

Monday, March 24, 2014

  Actual Average Record
Temperature  
Mean Temperature 30 °F -  
Max Temperature 42 °F 42 °F 59 °F (2012)
Min Temperature 19 °F 16 °F -7 °F (2013)
Degree Days  
Heating Degree Days 34    
Moisture  
Dew Point 14 °F    
Average Humidity 51    
Maximum Humidity 74    
Minimum Humidity 31    
Precipitation  
Precipitation 0.00 in - - ()
Sea Level Pressure  
Sea Level Pressure 30.17 in    
Wind  
Wind Speed 8 mph (North)    
Max Wind Speed 15 mph    
Max Gust Speed 22 mph    
Visibility 10 miles    
Events      
Averages and records for this station are not official NWS values.
T = Trace of Precipitation, MM = Missing Value Source: NWS Daily Summary

Daily Weather History Graph

Daily Weather History Graph

Search for Another Location

Airport:

Trip Planner

Search our weather history database for the weather conditions in past years. The results will help you decide how hot, cold, wet, or windy it might be!

Date:

Astronomy

Mar. 24, 2014 Rise Set
Actual Time 7:18 AM MDT 7:40 PM MDT
Civil Twilight 6:50 AM MDT 8:08 PM MDT
Nautical Twilight 6:16 AM MDT 8:42 PM MDT
Astronomical Twilight 5:41 AM MDT 9:17 PM MDT
Moon 3:02 AM MDT (3/24) 12:59 PM MDT (3/24)
Length of Visible Light 13h 18m
Length of Day
12h 21m
Last Quarter, 42% of the Moon is Illuminated
Mar 24
Last Quarter
Mar 30
New
Apr 7
First Quarter
Apr 15
Full
Apr 22
Last Quarter

Hourly Weather History & Observations

Time (MDT) Temp. Windchill Dew Point Humidity Pressure Visibility Wind Dir Wind Speed Gust Speed Precip Events Conditions
12:15 AM 33.8 °F 24.8 °F 12.2 °F 41% 30.08 in - WNW 12.7 mph 17.3 mph N/A   Mostly Cloudy
12:35 AM 33.8 °F 27.0 °F 14.0 °F 44% 30.10 in 10.0 mi North 8.1 mph - N/A   Mostly Cloudy
12:55 AM 32.0 °F 24.8 °F 14.0 °F 48% 30.10 in 10.0 mi North 8.1 mph - N/A   Scattered Clouds
1:15 AM 28.4 °F 21.2 °F 17.6 °F 64% 30.11 in 10.0 mi WNW 6.9 mph - N/A   Scattered Clouds
1:35 AM 28.4 °F 21.2 °F 15.8 °F 59% 30.11 in 10.0 mi North 6.9 mph - N/A   Partly Cloudy
1:55 AM 30.2 °F 22.6 °F 12.2 °F 47% 30.12 in 10.0 mi West 8.1 mph - N/A   Partly Cloudy
2:15 AM 30.2 °F 19.3 °F 10.4 °F 44% 30.12 in 10.0 mi WNW 15.0 mph 19.6 mph N/A   Partly Cloudy
2:35 AM 30.2 °F 24.3 °F 10.4 °F 44% 30.13 in 10.0 mi West 5.8 mph - N/A   Clear
2:55 AM 30.2 °F 21.9 °F 10.4 °F 44% 30.13 in 10.0 mi West 9.2 mph 21.9 mph N/A   Clear
3:15 AM 30.2 °F 21.3 °F 10.4 °F 44% 30.13 in 10.0 mi WNW 10.4 mph - N/A   Clear
3:35 AM 30.2 °F 25.4 °F 10.4 °F 44% 30.13 in 10.0 mi West 4.6 mph - N/A   Clear
3:55 AM 30.2 °F 19.3 °F 10.4 °F 44% 30.14 in 10.0 mi NW 15.0 mph 19.6 mph N/A   Clear
4:15 AM 26.6 °F 20.0 °F 12.2 °F 55% 30.15 in 10.0 mi East 5.8 mph - N/A   Clear
4:35 AM 26.6 °F 19.1 °F 10.4 °F 51% 30.16 in 10.0 mi NE 6.9 mph - N/A   Partly Cloudy
4:55 AM 24.8 °F 14.6 °F 10.4 °F 54% 30.16 in 10.0 mi NNE 10.4 mph - N/A   Scattered Clouds
5:15 AM 23.0 °F 13.1 °F 10.4 °F 59% 30.16 in 10.0 mi NE 9.2 mph - N/A   Scattered Clouds
5:35 AM 26.6 °F 14.7 °F 12.2 °F 55% 30.17 in 10.0 mi ENE 15.0 mph - N/A   Mostly Cloudy
5:55 AM 24.8 °F 17.9 °F 12.2 °F 59% 30.18 in 10.0 mi NNE 5.8 mph - N/A   Mostly Cloudy
6:15 AM 23.0 °F 13.9 °F 12.2 °F 63% 30.19 in 10.0 mi NE 8.1 mph - N/A   Mostly Cloudy
6:35 AM 24.8 °F 19.1 °F 10.4 °F 54% 30.19 in 10.0 mi NE 4.6 mph - N/A   Mostly Cloudy
6:51 AM 23.0 °F 13.1 °F 10.4 °F 59% 30.20 in 10.0 mi NW 9.2 mph - N/A   Scattered Clouds
7:51 AM 19.4 °F 10.4 °F 10.4 °F 68% 30.22 in 10.0 mi NNW 6.9 mph - N/A   Clear
8:51 AM 19.4 °F 10.4 °F 10.4 °F 68% 30.23 in 10.0 mi ENE 6.9 mph - N/A   Clear
9:51 AM 21.2 °F 13.6 °F 10.4 °F 63% 30.24 in 10.0 mi NNE 5.8 mph - N/A   Clear
10:51 AM 26.6 °F 21.2 °F 14.0 °F 59% 30.24 in 10.0 mi NE 4.6 mph - N/A   Clear
12:51 PM 33.8 °F 30.8 °F 14.0 °F 44% 30.22 in 10.0 mi North 3.5 mph - N/A   Clear
1:59 PM 37.4 °F 33.8 °F 15.8 °F 41% 30.21 in 10.0 mi East 4.6 mph - N/A   Clear
2:54 PM 39.2 °F 34.2 °F 10.4 °F 31% 30.19 in 10.0 mi SSE 6.9 mph - N/A   Scattered Clouds
3:51 PM 41.0 °F 35.2 °F 12.2 °F 31% 30.19 in 10.0 mi SE 9.2 mph - N/A   Scattered Clouds
4:57 PM 42.8 °F 36.6 °F 15.8 °F 34% 30.19 in 10.0 mi SSE 11.5 mph - N/A   Scattered Clouds
5:59 PM 42.8 °F 37.0 °F 15.8 °F 34% 30.18 in 10.0 mi WSW 10.4 mph 16.1 mph N/A   Scattered Clouds
6:54 PM 42.8 °F 38.6 °F 15.8 °F 34% 30.18 in 10.0 mi South 6.9 mph - N/A   Scattered Clouds
7:56 PM 41.0 °F - 14.0 °F 33% 30.18 in 10.0 mi Calm Calm - N/A   Scattered Clouds
8:55 PM 37.4 °F 33.8 °F 19.4 °F 48% 30.19 in 10.0 mi WSW 4.6 mph - N/A   Overcast
9:15 PM 39.2 °F 35.9 °F 14.0 °F 36% 30.19 in 10.0 mi SSW 4.6 mph - N/A   Overcast
9:35 PM 33.8 °F 30.8 °F 21.2 °F 60% 30.18 in 10.0 mi ESE 3.5 mph - N/A   Mostly Cloudy
9:55 PM 35.6 °F - 19.4 °F 52% 30.19 in - Calm Calm - N/A   Partly Cloudy
10:15 PM 33.8 °F 28.6 °F 19.4 °F 56% 30.18 in - SE 5.8 mph - N/A   Clear
10:35 PM 33.8 °F 29.6 °F 19.4 °F 56% 30.18 in 10.0 mi SSE 4.6 mph - N/A   Clear
10:55 PM 30.2 °F 26.7 °F 19.4 °F 64% 30.18 in - SW 3.5 mph - N/A   Clear
11:15 PM 28.4 °F - 21.2 °F 74% 30.17 in - Calm Calm - N/A   Clear
11:35 PM 28.4 °F - 21.2 °F 74% 30.17 in - Calm Calm - N/A   Clear
11:55 PM 30.2 °F - 21.2 °F 69% 30.17 in - Calm Calm - N/A   Clear